USA 176 (DSP 22)

Last updated on Mon Sep 07 2026 00:02:57 GMT+0000 (Coordinated Universal Time)

1 28158U 04004A 26249.22566060 -.00000307 00000+0 00000+0 0 9991 2 28158 12.1714 25.4534 0002417 291.3482 60.5707 1.00265940 33747
UTC large
Height (km)
Speed (km/s)
/
Latitude / Longitude
Inclination (degrees)
Orbital Period (minutes)
Azimuth
Elevation
Range (km)
Doppler Factor

Next 0 passes for location: London (51.5072 / 0.1276)

No passes found over London.
USA 176 (DSP 22)